Overview Statistics Trail Chart Weather Telemetry Raw packets
 

This is the latest recevied weather packets stored in our database for station/object SV9TNF-56. If no packets are shown the sender has not sent any weather packets the latest 10 day(s).

<< 79 80 81 82 83 84 85 >>
Time Temp. Humidity Pressure Rain* Wind** Luminosity Snow
1788088338 27.22° C 55% 1019 hPa 0 mm 15.2 m/s, 304° - -
1788088038 27.22° C 53% 1019.3 hPa 0 mm 3.58 m/s, 289° - -
1788087737 27.22° C 51% 1019 hPa 0 mm 5.36 m/s, 54° - -
1788087437 26.67° C 52% 1019.3 hPa 0 mm 8.05 m/s, 168° - -
1788087137 26.67° C 53% 1019.3 hPa 0 mm 3.58 m/s, 133° - -
1788086837 26.67° C 54% 1019.6 hPa 0 mm 12.52 m/s, 234° - -
1788086537 26.11° C 58% 1019.3 hPa 0 mm 14.31 m/s, 232° - -
1788086237 26.11° C 59% 1019.3 hPa 0 mm 25.93 m/s, 312° - -
1788085937 26.11° C 59% 1019.6 hPa 0 mm 17.88 m/s, 271° - -
1788085637 25.56° C 62% 1019.3 hPa 0 mm 17.88 m/s, 278° - -
1788085337 26.11° C 63% 1019.3 hPa 0 mm 26.38 m/s, 293° - -
1788085036 25.56° C 61% 1019.3 hPa 0 mm 16.99 m/s, 283° - -
1788084736 25.56° C 59% 1019.3 hPa 0 mm 18.33 m/s, 324° - -
1788084437 25.56° C 58% 1019.3 hPa 0 mm 15.2 m/s, 233° - -
1788084137 25.56° C 57% 1019.3 hPa 0 mm 17.88 m/s, 348° - -
1788083836 25.56° C 58% 1019.3 hPa 0 mm 19.22 m/s, 259° - -
1788083536 26.11° C 57% 1019.3 hPa 0 mm 15.2 m/s, 292° - -
1788083236 25.56° C 60% 1019.3 hPa 0 mm 12.07 m/s, 288° - -
1788082936 25.56° C 59% 1019.6 hPa 0 mm 6.26 m/s, 0° - -
1788082636 25.56° C 61% 1019.6 hPa 0 mm 15.2 m/s, 277° - -
1788082336 25.56° C 61% 1019.6 hPa 0 mm 17.88 m/s, 243° - -
1788082036 25.56° C 60% 1019.6 hPa 0 mm 9.83 m/s, 335° - -
1788081736 25.56° C 59% 1019.6 hPa 0 mm 25.48 m/s, 352° - -
1788081435 25.56° C 60% 1019.6 hPa 0 mm 7.15 m/s, 186° - -
1788081135 25.56° C 61% 1019.6 hPa 0 mm 4.92 m/s, 213° - -

* Rain latest hour (hover to see other rain measurements)
** Current wind speed in m/s (hover to see current wind gust speed)